York, PA

1:10 PM EST on November 21, 2017 (GMT -0500)
York

Weather History for KTHV - October, 2012

Change the Weather History Date:

Thursday, October 18, 2012

  Actual Average Record
Temperature  
Mean Temperature 56 °F -  
Max Temperature 68 °F 0 °F 84 °F (2016)
Min Temperature 46 °F - 28 °F (2015)
Degree Days  
Heating Degree Days 9    
Growing Degree Days 6 (Base 50)    
Moisture  
Dew Point 51 °F    
Average Humidity 80    
Maximum Humidity 94    
Minimum Humidity 45    
Precipitation  
Precipitation 0.74 in - - ()
Sea Level Pressure  
Sea Level Pressure 29.90 in    
Wind  
Wind Speed 5 mph (SSE)    
Max Wind Speed 16 mph    
Max Gust Speed 22 mph    
Visibility 6 miles    
Events Rain , Thunderstorm    
Averages and records for this station are not official NWS values.
T = Trace of Precipitation, MM = Missing Value Source: NWS Daily Summary

Daily Weather History Graph

Daily Weather History Graph

Search for Another Location

Airport or City:

Trip Planner

Search our weather history database for the weather conditions in past years. The results will help you decide how hot, cold, wet, or windy it might be!

Date:

Astronomy

Oct. 18, 2012 Rise Set
Actual Time 7:21 AM EDT 6:22 PM EDT
Civil Twilight 6:54 AM EDT 6:50 PM EDT
Nautical Twilight 6:22 AM EDT 7:21 PM EDT
Astronomical Twilight 5:51 AM EDT 7:52 PM EDT
Moon 11:00 AM EDT (10/18) 8:55 PM EDT (10/18)
Length of Visible Light 11h 56m
Length of Day
11h 01m
Waxing Crescent, 14% of the Moon is Illuminated
Oct 18
Waxing Crescent
Oct 21
First Quarter
Oct 29
Full
Nov 6
Last Quarter
Nov 13
New

Hourly Weather History & Observations

Time (EDT) Temp. Dew Point Humidity Pressure Visibility Wind Dir Wind Speed Gust Speed Precip Events Conditions
12:53 AM 46.9 °F 44.1 °F 90% 29.94 in 6.0 mi Calm Calm - N/A   Clear
1:53 AM 48.9 °F 46.0 °F 90% 29.93 in 6.0 mi SE 4.6 mph - N/A   Clear
2:53 AM 48.0 °F 45.0 °F 89% 29.93 in 5.0 mi Calm Calm - N/A   Partly Cloudy
3:53 AM 52.0 °F 48.9 °F 89% 29.92 in 5.0 mi SSE 5.8 mph - N/A   Clear
4:53 AM 52.0 °F 48.9 °F 89% 29.93 in 5.0 mi SSE 5.8 mph - N/A   Clear
5:53 AM 52.0 °F 48.9 °F 89% 29.94 in 5.0 mi SSE 8.1 mph - N/A   Clear
6:53 AM 48.9 °F 46.9 °F 93% 29.95 in 4.0 mi SE 3.5 mph - N/A   Clear
7:53 AM 52.0 °F 48.0 °F 86% 29.95 in 6.0 mi Calm Calm - N/A   Clear
8:53 AM 55.0 °F 48.9 °F 80% 29.96 in 6.0 mi Variable 4.6 mph - N/A   Haze
9:53 AM 57.0 °F 50.0 °F 77% 29.97 in 9.0 mi Variable 5.8 mph - N/A   Clear
10:53 AM 59.0 °F 48.9 °F 69% 29.97 in 10.0 mi Variable 3.5 mph - N/A   Clear
11:53 AM 64.0 °F 46.0 °F 52% 29.96 in 10.0 mi South 8.1 mph 19.6 mph N/A   Clear
12:53 PM 66.0 °F 46.9 °F 50% 29.91 in 10.0 mi South 8.1 mph 21.9 mph N/A   Clear
1:53 PM 66.9 °F 45.0 °F 45% 29.88 in 10.0 mi South 11.5 mph 21.9 mph N/A   Partly Cloudy
2:53 PM 64.9 °F 48.9 °F 56% 29.87 in 10.0 mi SE 16.1 mph 21.9 mph N/A   Scattered Clouds
3:53 PM 64.9 °F 50.0 °F 58% 29.89 in 10.0 mi SE 15.0 mph 20.7 mph N/A   Overcast
4:53 PM 64.9 °F 50.0 °F 58% 29.87 in 10.0 mi SSE 10.4 mph 16.1 mph N/A   Overcast
5:53 PM 64.9 °F 50.0 °F 58% 29.86 in 10.0 mi SE 10.4 mph 18.4 mph N/A   Overcast
6:53 PM 63.0 °F 51.1 °F 65% 29.88 in 10.0 mi East 10.4 mph - N/A   Clear
7:53 PM 62.1 °F 53.1 °F 72% 29.87 in 10.0 mi East 9.2 mph - N/A   Overcast
8:53 PM 60.1 °F 54.0 °F 80% 29.86 in 7.0 mi SE 6.9 mph 18.4 mph 0.01 in Rain Light Rain
9:10 PM 59.0 °F 55.4 °F 88% 29.87 in 2.5 mi SE 6.9 mph - 0.10 in Rain Heavy Rain
9:14 PM 57.2 °F 55.4 °F 94% 29.87 in 1.8 mi Variable 4.6 mph - 0.16 in Rain Heavy Rain
9:23 PM 57.2 °F 55.4 °F 94% 29.87 in 1.8 mi Calm Calm - 0.23 in Rain Heavy Rain
9:30 PM 57.2 °F 55.4 °F 94% 29.87 in 1.0 mi WNW 4.6 mph - 0.34 in Rain Heavy Rain
9:39 PM 57.2 °F 55.4 °F 94% 29.87 in 1.5 mi West 3.5 mph - 0.41 in Rain Heavy Rain
9:53 PM 57.9 °F 55.9 °F 93% 29.86 in 2.5 mi East 3.5 mph - 0.53 in Rain Light Rain
10:00 PM 57.2 °F 55.4 °F 94% 29.85 in 8.0 mi East 4.6 mph - 0.00 in Rain Light Rain
10:53 PM 57.9 °F 55.9 °F 93% 29.83 in 7.0 mi Calm Calm - 0.02 in Rain , Thunderstorm Light Thunderstorms and Rain
11:32 PM 57.2 °F 55.4 °F 94% 29.83 in 2.5 mi West 4.6 mph - 0.08 in Rain , Thunderstorm Heavy Thunderstorms and Rain
11:47 PM 57.2 °F 55.4 °F 94% 29.84 in 2.5 mi West 9.2 mph - 0.16 in Rain Heavy Rain
11:53 PM 57.9 °F 55.9 °F 93% 29.87 in 3.0 mi West 13.8 mph 21.9 mph 0.18 in Rain , Thunderstorm Rain